When you browse on this site, cookies collect data to enhance your experience and personalize the content and advertising you see.
Visit our Privacy Policy to learn more. By continuing to use the site, you agree to this use of cookies and data.
  • In United Kingdom
  • List of Countries
  • For 7 days
  • Water Temperature
  • Weather Map
  • Weather Widgets
  • user-avatar
    Login

    Hourly Weather Brecon

    Today, 4 April, Saturday

    Time Temperature Precipitation Wind Pressure Humidity
    00:00 +5°C° 0 mm 1 mps 748 mmHg 94%
    01:00 +5°C° 0 mm 1 mps 748 mmHg 95%
    02:00 +5°C° 0 mm 1 mps 748 mmHg 95%
    03:00 +5°C° 0 mm 1 mps 748 mmHg 96%
    04:00 +5°C° 0 mm 1 mps 747 mmHg 95%
    05:00 +5°C° 0 mm 1 mps 747 mmHg 95%
    06:00 +3°C° 0 mm 2 mps 747 mmHg 96%
    07:00 +4°C° 0 mm 3 mps 747 mmHg 91%
    08:00 +6°C° 0 mm 4 mps 747 mmHg 87%
    09:00 +7°C° 0 mm 5 mps 748 mmHg 82%
    10:00 +8°C° 0 mm 6 mps 747 mmHg 77%
    11:00 +9°C° 0 mm 6 mps 747 mmHg 73%
    12:00 +10°C° 0 mm 7 mps 747 mmHg 68%
    13:00 +11°C° 0 mm 7 mps 747 mmHg 67%
    14:00 +11°C° 0 mm 7 mps 747 mmHg 66%
    15:00 +11°C° 0 mm 7 mps 746 mmHg 66%
    16:00 +10°C° 0 mm 6 mps 746 mmHg 70%
    17:00 +9°C° 0 mm 6 mps 746 mmHg 75%
    18:00 +8°C° 0 mm 5 mps 745 mmHg 79%
    19:00 +7°C° 0 mm 4 mps 745 mmHg 84%
    20:00 +6°C° 0 mm 4 mps 745 mmHg 88%
    21:00 +5°C° 0 mm 4 mps 746 mmHg 93%
    22:00 +5°C° 0 mm 4 mps 745 mmHg 93%
    23:00 +4°C° 0 mm 4 mps 745 mmHg 94%

    Tomorrow, 5 April, Sunday

    Time Temperature Precipitation Wind Pressure Humidity
    00:00 +4°C° 0 mm 4 mps 745 mmHg 94%
    01:00 +4°C° 0 mm 4 mps 744 mmHg 94%
    02:00 +4°C° 0 mm 4 mps 744 mmHg 94%
    03:00 +5°C° 0 mm 5 mps 743 mmHg 94%
    04:00 +5°C° 0 mm 5 mps 742 mmHg 94%
    05:00 +3°C° 0 mm 5 mps 742 mmHg 95%
    06:00 +3°C° 0 mm 5 mps 742 mmHg 95%
    07:00 +6°C° 0 mm 5 mps 741 mmHg 91%
    08:00 +8°C° 0 mm 6 mps 741 mmHg 86%
    09:00 +9°C° 0 mm 6 mps 741 mmHg 81%
    10:00 +10°C° 0 mm 7 mps 741 mmHg 79%
    11:00 +11°C° 0 mm 8 mps 740 mmHg 77%
    12:00 +12°C° 0 mm 9 mps 740 mmHg 75%
    13:00 +12°C° 0 mm 9 mps 740 mmHg 76%
    14:00 +12°C° 0 mm 9 mps 739 mmHg 77%
    15:00 +12°C° 0 mm 9 mps 739 mmHg 78%
    16:00 +12°C° 0 mm 9 mps 738 mmHg 79%
    17:00 +12°C° 0 mm 9 mps 738 mmHg 81%
    18:00 +11°C° 0 mm 8 mps 738 mmHg 82%
    19:00 +11°C° 0.2 mm 8 mps 738 mmHg 84%
    20:00 +11°C° 0.2 mm 8 mps 738 mmHg 87%
    21:00 +10°C° 0.2 mm 8 mps 738 mmHg 89%
    22:00 +10°C° 0.6 mm 8 mps 738 mmHg 91%
    23:00 +10°C° 0.6 mm 8 mps 738 mmHg 93%

    Day after tomorrow, 6 April, Monday

    Time Temperature Precipitation Wind Pressure Humidity
    00:00 +10°C° 0.6 mm 8 mps 739 mmHg 95%
    01:00 +9°C° 0.1 mm 7 mps 739 mmHg 95%
    02:00 +8°C° 0.1 mm 6 mps 739 mmHg 94%
    03:00 +7°C° 0.1 mm 6 mps 740 mmHg 93%
    04:00 +6°C° 0 mm 5 mps 741 mmHg 94%
    05:00 +6°C° 0 mm 5 mps 741 mmHg 94%
    06:00 +6°C° 0 mm 5 mps 742 mmHg 95%
    07:00 +7°C° 0 mm 5 mps 743 mmHg 91%
    08:00 +8°C° 0 mm 5 mps 744 mmHg 86%
    09:00 +9°C° 0 mm 6 mps 745 mmHg 81%
    10:00 +9°C° 0 mm 6 mps 745 mmHg 76%
    11:00 +10°C° 0 mm 6 mps 746 mmHg 71%
    12:00 +10°C° 0 mm 6 mps 747 mmHg 67%
    13:00 +10°C° 0 mm 6 mps 747 mmHg 66%
    14:00 +10°C° 0 mm 6 mps 748 mmHg 65%
    15:00 +10°C° 0 mm 6 mps 749 mmHg 64%
    16:00 +9°C° 0 mm 5 mps 749 mmHg 68%
    17:00 +8°C° 0 mm 4 mps 750 mmHg 72%
    18:00 +7°C° 0 mm 4 mps 751 mmHg 76%
    19:00 +7°C° 0 mm 3 mps 751 mmHg 80%
    20:00 +6°C° 0 mm 2 mps 752 mmHg 85%
    21:00 +5°C° 0 mm 1 mps 753 mmHg 90%
    22:00 +5°C° 0 mm 1 mps 753 mmHg 90%
    23:00 +5°C° 0 mm 1 mps 754 mmHg 90%

    7 April, Tuesday

    Time Temperature Precipitation Wind Pressure Humidity
    00:00 +5°C° 0 mm 1 mps 754 mmHg 90%
    01:00 +5°C° 0 mm 1 mps 754 mmHg 90%
    02:00 +4°C° 0 mm 1 mps 754 mmHg 91%
    03:00 +4°C° 0 mm 1 mps 755 mmHg 91%
    04:00 +4°C° 0 mm 1 mps 755 mmHg 91%
    05:00 +3°C° 0 mm 0 mps 755 mmHg 91%
    06:00 +3°C° 0 mm 0 mps 755 mmHg 91%
    07:00 +6°C° 0 mm 1 mps 756 mmHg 85%
    08:00 +8°C° 0 mm 1 mps 756 mmHg 79%
    09:00 +9°C° 0 mm 2 mps 756 mmHg 72%
    10:00 +10°C° 0 mm 2 mps 756 mmHg 68%
    11:00 +11°C° 0 mm 3 mps 756 mmHg 64%
    12:00 +12°C° 0 mm 3 mps 756 mmHg 60%
    13:00 +12°C° 0 mm 3 mps 756 mmHg 60%
    14:00 +12°C° 0 mm 3 mps 756 mmHg 60%
    15:00 +12°C° 0 mm 3 mps 756 mmHg 61%
    16:00 +12°C° 0 mm 3 mps 756 mmHg 66%
    17:00 +12°C° 0 mm 2 mps 756 mmHg 72%
    18:00 +10°C° 0 mm 2 mps 756 mmHg 77%
    19:00 +9°C° 0 mm 2 mps 756 mmHg 81%
    20:00 +7°C° 0 mm 2 mps 756 mmHg 84%
    21:00 +6°C° 0 mm 1 mps 756 mmHg 87%
    22:00 +6°C° 0 mm 1 mps 756 mmHg 88%
    23:00 +6°C° 0 mm 1 mps 756 mmHg 88%

    8 April, Wednesday

    Time Temperature Precipitation Wind Pressure Humidity
    00:00 +5°C° 0 mm 1 mps 756 mmHg 88%
    01:00 +5°C° 0 mm 1 mps 756 mmHg 88%
    02:00 +5°C° 0 mm 1 mps 756 mmHg 88%
    03:00 +5°C° 0 mm 1 mps 756 mmHg 88%
    04:00 +4°C° 0 mm 1 mps 756 mmHg 87%
    05:00 +4°C° 0 mm 1 mps 756 mmHg 87%
    06:00 +4°C° 0 mm 1 mps 756 mmHg 86%
    07:00 +6°C° 0 mm 1 mps 756 mmHg 80%
    08:00 +9°C° 0 mm 1 mps 756 mmHg 73%
    09:00 +10°C° 0 mm 2 mps 756 mmHg 66%
    10:00 +12°C° 0 mm 2 mps 756 mmHg 62%
    11:00 +13°C° 0 mm 2 mps 756 mmHg 58%
    12:00 +14°C° 0 mm 2 mps 756 mmHg 54%
    13:00 +15°C° 0 mm 2 mps 756 mmHg 54%
    14:00 +15°C° 0 mm 2 mps 755 mmHg 55%
    15:00 +15°C° 0 mm 2 mps 755 mmHg 55%
    16:00 +15°C° 0 mm 2 mps 755 mmHg 61%
    17:00 +14°C° 0 mm 2 mps 754 mmHg 67%
    18:00 +13°C° 0 mm 2 mps 754 mmHg 73%
    19:00 +12°C° 0 mm 2 mps 754 mmHg 75%
    20:00 +9°C° 0 mm 2 mps 755 mmHg 77%
    21:00 +8°C° 0 mm 2 mps 755 mmHg 80%
    22:00 +8°C° 0 mm 2 mps 755 mmHg 82%
    23:00 +8°C° 0 mm 2 mps 755 mmHg 84%

    9 April, Thursday

    Time Temperature Precipitation Wind Pressure Humidity
    00:00 +8°C° 0 mm 2 mps 755 mmHg 87%
    01:00 +7°C° 0 mm 2 mps 754 mmHg 88%
    02:00 +7°C° 0 mm 2 mps 754 mmHg 89%
    03:00 +7°C° 0 mm 3 mps 754 mmHg 90%
    04:00 +7°C° 0 mm 3 mps 754 mmHg 90%
    05:00 +7°C° 0 mm 3 mps 754 mmHg 90%
    06:00 +7°C° 0 mm 3 mps 754 mmHg 90%
    07:00 +7°C° 0 mm 4 mps 754 mmHg 87%
    08:00 +10°C° 0 mm 4 mps 754 mmHg 83%
    09:00 +12°C° 0 mm 4 mps 754 mmHg 80%
    10:00 +13°C° 0 mm 4 mps 753 mmHg 78%
    11:00 +14°C° 0 mm 4 mps 753 mmHg 76%
    12:00 +16°C° 0 mm 5 mps 753 mmHg 74%
    13:00 +16°C° 0 mm 5 mps 753 mmHg 72%
    14:00 +17°C° 0 mm 5 mps 753 mmHg 71%
    15:00 +17°C° 0 mm 5 mps 752 mmHg 69%
    16:00 +16°C° 0 mm 5 mps 752 mmHg 73%
    17:00 +15°C° 0 mm 4 mps 752 mmHg 77%
    18:00 +14°C° 0 mm 3 mps 751 mmHg 82%
    19:00 +13°C° 0 mm 3 mps 751 mmHg 85%
    20:00 +11°C° 0 mm 3 mps 751 mmHg 88%
    21:00 +10°C° 0 mm 3 mps 751 mmHg 91%
    22:00 +9°C° 0 mm 3 mps 751 mmHg 92%
    23:00 +9°C° 0 mm 2 mps 751 mmHg 92%
    Show more